Terminal Aerodrome Forecast
Issued by NWS Salt Lake City, UT

Home | Current Version | Previous Version | Text Only | Print | Product List | Glossary On
Versions: 1 2 3 4 5 6 7 8 9 10 11 12 13 14 15 16 17 18 19 20 21 22 23 24 25 26 27 28 29
000
FTUS45 KSLC 202050 AAB
TAFSLC
TAF AMD
KSLC 202050Z 2021/2124 30014G20KT P6SM FEW070 FEW120 BKN200
     FM210200 33006KT P6SM SCT200
     FM210400 16007KT P6SM SKC
     FM211900 29010KT P6SM SCT150=

USA.gov is the U.S. government's official web portal to all federal, state and local government web resources and services.